User: anonymous   Login
Location: Gugi
(45.4667°N, 11.1000°E)
Time: 17:12:16
(UTC+00:00)
Language:

Cosmos 1151 Rocket - Orbit

View from above orbital plane
View from above orbital plane
View from above satellite
View from above satellite

Ground track
Ground track

The orbit data is extracted from the following two-line orbital elements,

1 11672U 80005B   20024.75383276  .00000077  00000-0  56613-5 0  9999
2 11672  82.5146 261.1365 0017740  41.9329 318.3243 14.87983452164899
Epoch (UTC): 24 January 2020 18:05:31
Eccentricity: 0.0017740
inclination: 82.5146°
perigee height: 592 km
apogee height: 616 km
right ascension of ascending node: 261.1365°
argument of perigee: 41.9329°
revolutions per day: 14.87983452
mean anomaly at epoch: 318.3243°
orbit number at epoch: 16489

The dashed part of the orbit path shows where the satellite is in the earth's shadow,  

DLR